Location: Saluda
(35.2377°N, 82.3468°W)
Time: 04:59:39
(UTC+00:00)

Vanguard 2 - Pass Details

Date: 10 October 2022
Orbit: 553 x 2933 km, 32.9° (Epoch: 26 November)

Event Time Altitude Azimuth Distance (km) Brightness Sun altitude
Rises 14:35:34 0° 214° (SW) 3,184 10.8 33.5°
Reaches altitude 10° 14:37:55 10° 202° (SSW) 2,469 10.4 33.8°
Maximum altitude 14:42:57 29° 143° (SE) 1,910 11.9 34.6°
Drops below altitude 10° 14:50:25 10° 88° (E) 3,756 11.7 35.7°
Sets 14:54:55 0° 79° (E) 5,195 12.2 36.4°
